WORLDVIEW-2 (WV-2)

Last updated on Tue Sep 16 2025 00:02:30 GMT+0000 (Coordinated Universal Time)

1 35946U 09055A 25258.55137221 .00000111 00000+0 51536-4 0 9990 2 35946 98.4799 330.8723 0003309 341.6549 18.4518 14.37446698836183
UTC large
Height (km)
Speed (km/s)
/
Latitude / Longitude
Inclination (degrees)
Orbital Period (minutes)
Azimuth
Elevation
Range (km)
Doppler Factor

Next 0 passes for location: London (51.5072 / 0.1276)

Sorry there are no passes over London.